Погода в Верхних Ачалуках

Россия / Республика Ингушетия     43°20′51″N   44°42′07″E
темп.,
°C
ветер,
м/с
пор.,
м/с
влажн.,
%
обл.,
%
осадки,
мм/ч
давл.,
гПа
погр.,
м
1 июля, пт
пт100:00+17юз239635 1.8 101247
03:00+16зюз229526 2.7 101233
06:00+17зюз22920 1.5 1011102
09:00+21з22780 2.5 1011512
12:00+24ссз226517 2.8 10101127
15:00+25зсз236197 6.6 1009820
18:00+20з5882100 3.3 1011179
21:00+17зюз359689 5.4 1013145
2 июля, сб
сб200:00+16юз3491100 0.0 101159
03:00+16юз3487100 0.0 101052
06:00+17юз3484100 0.0 101188
09:00+18зюз3580100 0.0 1012194
12:00+17з3779100 0.1 1013420
15:00+17зюз3477100 0.1 1013332
18:00+15юз3689100 0.3 1014276
21:00+15зюз4985100 1.3 1016191
3 июля, вс
вс300:00+12юз498493 0.0 1016227
03:00+11юз36820 0.0 101681
06:00+13ююз37780 0.0 1016147
09:00+18зсз57530 0.0 10161361
12:00+21зсз57472 0.0 10151957
15:00+23сз57457 0.0 10142223
18:00+18зюз3666100 0.0 1015128
21:00+17зюз376699 0.0 1017170
4 июля, пн
пн400:00+15юз36759 0.0 101697
03:00+14юз33721 0.0 101735
06:00+15юз33725 0.0 101780
09:00+21з33525 0.0 1016811
12:00+23зсз33460 0.0 10161771
15:00+24з23420 0.0 10141938
18:00+23ююз346018 0.0 1015128
21:00+19юз115699 0.0 101611
5 июля, вт
вт500:00+18ююз346162 0.0 101684
03:00+16ююз22612 0.0 101617
06:00+17юз23685 0.0 101767
09:00+23зсз34535 0.0 1016744
12:00+25сз444836 0.0 10172104
15:00+23ссз025882 0.0 1016203
18:00+23св115987 0.0 101623
21:00+20в225583 0.0 101825